Time,TemperatureF,DewpointF,PressureIn,WindDirection,WindDirectionDegrees,WindSpeedMPH,WindSpeedGustMPH,Humidity,HourlyPrecipIn,Conditions,Clouds,dailyrainin,SoftwareType,DateUTC
2013-05-31 00:14:00,68.5,59.9,30.12,North,0,0.0,0.0,74,0.00,,CLR,0.00,VWS V14.00,2013-05-31 04:14:00,
2013-05-31 00:29:00,68.2,59.6,30.12,North,0,0.0,0.0,74,0.00,,CLR,0.00,VWS V14.00,2013-05-31 04:29:00,
2013-05-31 00:44:00,67.8,59.6,30.12,North,0,0.0,0.0,75,0.00,,CLR,0.00,VWS V14.00,2013-05-31 04:44:00,
2013-05-31 00:59:00,67.5,59.6,30.12,North,0,0.0,0.0,76,0.00,,CLR,0.00,VWS V14.00,2013-05-31 04:59:00,
2013-05-31 01:14:00,66.9,59.1,30.12,North,0,0.0,0.0,76,0.00,,CLR,0.00,VWS V14.00,2013-05-31 05:14:00,
2013-05-31 01:29:00,66.7,59.3,30.12,North,0,0.0,0.0,77,0.00,,CLR,0.00,VWS V14.00,2013-05-31 05:29:00,
2013-05-31 01:44:00,66.4,59.3,30.12,North,0,0.0,0.0,78,0.00,,CLR,0.00,VWS V14.00,2013-05-31 05:44:00,
2013-05-31 01:59:00,66.4,60.0,30.12,North,0,0.0,0.0,80,0.00,,,0.00,VWS V14.00,2013-05-31 05:59:00,
2013-05-31 02:14:00,66.2,60.2,30.12,North,0,0.0,0.0,81,0.00,,,0.00,VWS V14.00,2013-05-31 06:14:00,
2013-05-31 02:29:00,66.0,60.0,30.12,North,0,0.0,0.0,81,0.00,,,0.00,VWS V14.00,2013-05-31 06:29:00,
2013-05-31 02:44:00,65.7,59.7,30.12,North,0,0.0,0.0,81,0.00,,,0.00,VWS V14.00,2013-05-31 06:44:00,
2013-05-31 02:59:00,65.5,59.8,30.12,North,0,0.0,0.0,82,0.00,,,0.00,VWS V14.00,2013-05-31 06:59:00,
2013-05-31 03:14:00,65.3,59.7,30.12,North,0,0.0,0.0,82,0.00,,,0.00,VWS V14.00,2013-05-31 07:14:00,
2013-05-31 03:29:00,64.9,59.3,30.12,North,0,0.0,0.0,82,0.00,,,0.00,VWS V14.00,2013-05-31 07:29:00,
2013-05-31 03:44:00,65.1,59.5,30.09,North,0,0.0,0.0,82,0.00,,,0.00,VWS V14.00,2013-05-31 07:44:00,
2013-05-31 03:59:00,64.8,59.5,30.09,North,0,0.0,0.0,83,0.00,,,0.00,VWS V14.00,2013-05-31 07:59:00,
2013-05-31 04:14:00,64.8,59.5,30.09,North,0,0.0,0.0,83,0.00,,,0.00,VWS V14.00,2013-05-31 08:14:00,
2013-05-31 04:29:00,64.4,59.1,30.09,North,0,0.0,0.0,83,0.00,,,0.00,VWS V14.00,2013-05-31 08:29:00,
2013-05-31 04:44:00,64.2,59.3,30.12,North,0,0.0,0.0,84,0.00,,,0.00,VWS V14.00,2013-05-31 08:44:00,
2013-05-31 04:59:00,63.9,58.9,30.12,North,0,0.0,0.0,84,0.00,,,0.00,VWS V14.00,2013-05-31 08:59:00,
2013-05-31 05:14:00,63.5,58.9,30.12,North,0,0.0,0.0,85,0.00,,,0.00,VWS V14.00,2013-05-31 09:14:00,
2013-05-31 05:29:00,63.3,58.7,30.12,North,0,0.0,0.0,85,0.00,,,0.00,VWS V14.00,2013-05-31 09:29:00,
2013-05-31 05:45:00,63.1,58.9,30.12,North,0,0.0,0.0,86,0.00,,,0.00,VWS V14.00,2013-05-31 09:45:00,
2013-05-31 05:59:00,63.0,58.7,30.12,North,0,0.0,0.0,86,0.00,,,0.00,VWS V14.00,2013-05-31 09:59:00,
2013-05-31 06:15:00,63.1,58.9,30.12,North,0,0.0,0.0,86,0.00,,,0.00,VWS V14.00,2013-05-31 10:15:00,
2013-05-31 06:30:00,63.5,59.2,30.12,North,0,0.0,0.0,86,0.00,,,0.00,VWS V14.00,2013-05-31 10:30:00,
2013-05-31 06:45:00,64.0,59.8,30.12,North,0,0.0,0.0,86,0.00,,,0.00,VWS V14.00,2013-05-31 10:45:00,
2013-05-31 07:00:00,64.8,60.5,30.12,North,0,0.0,0.0,86,0.00,,,0.00,VWS V14.00,2013-05-31 11:00:00,
2013-05-31 07:15:00,65.3,61.0,30.15,North,0,0.0,0.0,86,0.00,,,0.00,VWS V14.00,2013-05-31 11:15:00,
2013-05-31 07:30:00,66.2,61.9,30.15,North,0,0.0,0.0,86,0.00,,,0.00,VWS V14.00,2013-05-31 11:30:00,
2013-05-31 07:45:00,67.6,63.3,30.15,North,0,0.0,0.0,86,0.00,,,0.00,VWS V14.00,2013-05-31 11:45:00,
2013-05-31 08:00:00,69.3,64.6,30.12,North,0,0.0,0.0,85,0.00,,,0.00,VWS V14.00,2013-05-31 12:00:00,
2013-05-31 08:15:00,71.2,66.2,30.12,North,0,0.0,0.0,84,0.00,,,0.00,VWS V14.00,2013-05-31 12:15:00,
2013-05-31 08:30:00,72.9,67.4,30.12,North,0,0.0,0.0,83,0.00,,,0.00,VWS V14.00,2013-05-31 12:30:00,
2013-05-31 08:45:00,73.6,65.6,30.12,North,0,0.0,0.0,76,0.00,,,0.00,VWS V14.00,2013-05-31 12:45:00,
2013-05-31 09:00:00,75.4,64.5,30.12,North,0,0.0,0.0,69,0.00,,,0.00,VWS V14.00,2013-05-31 13:00:00,
2013-05-31 09:15:00,76.3,60.0,30.12,North,0,0.0,0.0,57,0.00,,,0.00,VWS V14.00,2013-05-31 13:15:00,
2013-05-31 09:30:00,77.7,55.9,30.12,North,0,0.0,0.0,47,0.00,,,0.00,VWS V14.00,2013-05-31 13:30:00,
2013-05-31 09:45:00,78.8,48.9,30.12,North,0,0.0,0.0,35,0.00,,,0.00,VWS V14.00,2013-05-31 13:45:00,
2013-05-31 10:00:00,80.2,46.0,30.12,North,0,0.0,0.0,30,0.00,,,0.00,VWS V14.00,2013-05-31 14:00:00,
2013-05-31 10:15:00,82.0,39.5,30.12,North,0,0.0,0.0,22,0.00,,,0.00,VWS V14.00,2013-05-31 14:15:00,
2013-05-31 10:30:00,83.3,38.1,30.12,North,0,0.0,0.0,20,0.00,,,0.00,VWS V14.00,2013-05-31 14:30:00,
2013-05-31 10:44:00,84.2,37.5,30.12,North,0,0.0,0.0,19,0.00,,,0.00,VWS V14.00,2013-05-31 14:44:00,
2013-05-31 11:00:00,85.5,37.2,30.09,North,0,0.0,0.0,18,0.00,,CLR,0.00,VWS V14.00,2013-05-31 15:00:00,
2013-05-31 11:15:00,86.7,38.2,30.09,North,0,0.0,0.0,18,0.00,,CLR,0.00,VWS V14.00,2013-05-31 15:15:00,
2013-05-31 11:30:00,88.2,39.4,30.09,North,0,0.0,0.0,18,0.00,,CLR,0.00,VWS V14.00,2013-05-31 15:30:00,
2013-05-31 11:45:00,88.7,35.2,30.09,North,0,0.0,0.0,15,0.00,,CLR,0.00,VWS V14.00,2013-05-31 15:45:00,
2013-05-31 12:00:00,90.0,36.2,30.09,North,0,0.0,0.0,15,0.00,,,0.00,VWS V14.00,2013-05-31 16:00:00,
2013-05-31 12:15:00,90.7,36.7,30.09,North,0,0.0,0.0,15,0.00,,,0.00,VWS V14.00,2013-05-31 16:15:00,
2013-05-31 12:30:00,91.4,35.6,30.09,North,0,0.0,0.0,14,0.00,,,0.00,VWS V14.00,2013-05-31 16:30:00,
2013-05-31 12:45:00,91.0,37.0,30.06,North,0,0.0,0.0,15,0.00,,,0.00,VWS V14.00,2013-05-31 16:45:00,
2013-05-31 13:00:00,90.9,36.9,30.06,North,0,0.0,0.0,15,0.00,,CLR,0.00,VWS V14.00,2013-05-31 17:00:00,
2013-05-31 13:15:00,90.1,36.3,30.06,North,0,0.0,0.0,15,0.00,,CLR,0.00,VWS V14.00,2013-05-31 17:15:00,
2013-05-31 13:30:00,90.3,30.9,30.06,North,0,0.0,0.0,12,0.00,,CLR,0.00,VWS V14.00,2013-05-31 17:30:00,
2013-05-31 13:44:00,91.6,31.9,30.06,North,0,0.0,0.0,12,0.00,,CLR,0.00,VWS V14.00,2013-05-31 17:44:00,
2013-05-31 13:59:00,91.0,31.4,30.06,North,0,0.0,0.0,12,0.00,,CLR,0.00,VWS V14.00,2013-05-31 17:59:00,
2013-05-31 14:14:00,93.7,31.4,30.06,North,0,0.0,0.0,11,0.00,,CLR,0.00,VWS V14.00,2013-05-31 18:14:00,
2013-05-31 14:29:00,92.8,32.8,30.06,North,0,0.0,0.0,12,0.00,,CLR,0.00,VWS V14.00,2013-05-31 18:29:00,
2013-05-31 14:44:00,91.9,32.1,30.06,North,0,0.0,0.0,12,0.00,,CLR,0.00,VWS V14.00,2013-05-31 18:44:00,
2013-05-31 14:59:00,94.1,31.6,30.03,North,0,0.0,0.0,11,0.00,,CLR,0.00,VWS V14.00,2013-05-31 18:59:00,
2013-05-31 15:14:00,93.6,31.2,30.03,North,0,0.0,0.0,11,0.00,,CLR,0.00,VWS V14.00,2013-05-31 19:14:00,
2013-05-31 15:29:00,92.1,32.3,30.03,North,0,0.0,0.0,12,0.00,,CLR,0.00,VWS V14.00,2013-05-31 19:29:00,
2013-05-31 15:44:00,94.6,32.0,30.03,North,0,0.0,0.0,11,0.00,,CLR,0.00,VWS V14.00,2013-05-31 19:44:00,
2013-05-31 15:59:00,91.6,31.9,30.03,North,0,0.0,0.0,12,0.00,,CLR,0.00,VWS V14.00,2013-05-31 19:59:00,
2013-05-31 16:14:00,91.9,32.1,30.03,North,0,0.0,0.0,12,0.00,,CLR,0.00,VWS V14.00,2013-05-31 20:14:00,
2013-05-31 16:29:00,92.7,32.7,30.00,North,0,0.0,0.0,12,0.00,,CLR,0.00,VWS V14.00,2013-05-31 20:29:00,
2013-05-31 16:44:00,92.5,32.5,30.00,North,0,0.0,0.0,12,0.00,,CLR,0.00,VWS V14.00,2013-05-31 20:44:00,
2013-05-31 16:59:00,93.6,31.2,30.00,North,0,0.0,0.0,11,0.00,,CLR,0.00,VWS V14.00,2013-05-31 20:59:00,
2013-05-31 17:14:00,93.7,31.4,30.00,North,0,0.0,0.0,11,0.00,,CLR,0.00,VWS V14.00,2013-05-31 21:14:00,
2013-05-31 17:29:00,91.9,32.1,30.00,North,0,0.0,0.0,12,0.00,,CLR,0.00,VWS V14.00,2013-05-31 21:29:00,
2013-05-31 17:44:00,91.9,32.1,29.97,North,0,0.0,0.0,12,0.00,,CLR,0.00,VWS V14.00,2013-05-31 21:44:00,
2013-05-31 17:59:00,91.8,32.0,30.00,North,0,0.0,0.0,12,0.00,,CLR,0.00,VWS V14.00,2013-05-31 21:59:00,
2013-05-31 18:14:00,90.3,30.9,30.00,North,0,0.0,0.0,12,0.00,,CLR,0.00,VWS V14.00,2013-05-31 22:14:00,
2013-05-31 18:29:00,92.1,32.3,29.97,North,0,0.0,0.0,12,0.00,,CLR,0.00,VWS V14.00,2013-05-31 22:29:00,
2013-05-31 18:44:00,92.8,32.8,29.97,North,0,0.0,0.0,12,0.00,,CLR,0.00,VWS V14.00,2013-05-31 22:44:00,
2013-05-31 18:59:00,93.7,31.4,30.00,North,0,0.0,0.0,11,0.00,,CLR,0.00,VWS V14.00,2013-05-31 22:59:00,
2013-05-31 19:15:00,91.8,32.0,30.00,North,0,0.0,0.0,12,0.00,,CLR,0.00,VWS V14.00,2013-05-31 23:15:00,
2013-05-31 19:29:00,87.6,30.8,30.00,North,0,0.0,0.0,13,0.00,,CLR,0.00,VWS V14.00,2013-05-31 23:29:00,
2013-05-31 19:44:00,85.8,29.4,30.00,North,0,0.0,0.0,13,0.00,,CLR,0.00,VWS V14.00,2013-05-31 23:44:00,
2013-05-31 20:00:00,84.2,28.1,30.00,North,0,0.0,0.0,13,0.00,,CLR,0.00,VWS V14.00,2013-06-01 00:00:00,
2013-05-31 20:14:00,80.6,27.0,30.00,North,0,0.0,0.0,14,0.00,,CLR,0.00,VWS V14.00,2013-06-01 00:14:00,
2013-05-31 20:29:00,77.9,33.6,30.00,North,0,0.0,0.0,20,0.00,,CLR,0.00,VWS V14.00,2013-06-01 00:29:00,
2013-05-31 20:45:00,75.9,34.4,30.00,North,0,0.0,0.0,22,0.00,,CLR,0.00,VWS V14.00,2013-06-01 00:45:00,
2013-05-31 21:00:00,74.3,35.2,30.00,North,0,0.0,0.0,24,0.00,,CLR,0.00,VWS V14.00,2013-06-01 01:00:00,
2013-05-31 21:14:00,73.4,37.4,30.00,North,0,0.0,0.0,27,0.00,,CLR,0.00,VWS V14.00,2013-06-01 01:14:00,
2013-05-31 21:30:00,74.3,36.2,30.00,North,0,0.0,0.0,25,0.00,,CLR,0.00,VWS V14.00,2013-06-01 01:30:00,
2013-05-31 21:45:00,73.4,37.4,30.00,North,0,0.0,0.0,27,0.00,,CLR,0.00,VWS V14.00,2013-06-01 01:45:00,
2013-05-31 22:00:00,72.7,38.6,30.00,North,0,0.0,0.0,29,0.00,,CLR,0.00,VWS V14.00,2013-06-01 02:00:00,
2013-05-31 22:15:00,72.7,38.6,30.00,North,0,0.0,0.0,29,0.00,,CLR,0.00,VWS V14.00,2013-06-01 02:15:00,
2013-05-31 22:30:00,71.8,40.4,30.00,North,0,0.0,0.0,32,0.00,,CLR,0.00,VWS V14.00,2013-06-01 02:30:00,
2013-05-31 22:45:00,71.6,40.2,30.00,North,0,0.0,0.0,32,0.00,,CLR,0.00,VWS V14.00,2013-06-01 02:45:00,
2013-05-31 23:00:00,70.9,41.1,30.00,North,0,0.0,0.0,34,0.00,,CLR,0.00,VWS V14.00,2013-06-01 03:00:00,
2013-05-31 23:15:00,70.3,40.7,30.00,North,0,0.0,0.0,34,0.00,,CLR,0.00,VWS V14.00,2013-06-01 03:15:00,
2013-05-31 23:30:00,69.6,43.6,30.00,North,0,0.0,0.0,39,0.00,,CLR,0.00,VWS V14.00,2013-06-01 03:30:00,
2013-05-31 23:45:00,68.9,46.7,30.00,North,0,0.0,0.0,45,0.00,,CLR,0.00,VWS V14.00,2013-06-01 03:45:00,